Location: Unspecified
(48.5539°N, 71.6350°W)
Time: 17:38:28
(UTC-05:00)

ISS - Pass Details

Date: 25 January 2019
Orbit: 403 x 411 km, 51.6° (Epoch: 20 February)

Event Time Altitude Azimuth Distance (km) Brightness Sun altitude
Rises 21:52:33 0° 289° (WNW) 2,347 - -50.8°
Reaches altitude 10° 21:54:39 10° 292° (WNW) 1,485 - -51.1°
Maximum altitude 21:57:58 68° 16° (NNE) 448 - -51.5°
Drops below altitude 10° 22:01:17 10° 101° (E) 1,483 - -51.9°
Sets 22:03:23 0° 104° (ESE) 2,344 - -52.2°
